Location: *
(45.1961°N, 1.9694°E)
Time: 22:53:08
(UTC+00:00)

Aureole 3 Rocket - Pass Details

Date: 25 August 2019
Orbit: 399 x 1741 km, 82.5° (Epoch: 19 September)

Event Time Altitude Azimuth Distance (km) Brightness Sun altitude
Exits shadow 19:55:16 - 172° (S) 1,876 5.2 -12.6°
Reaches altitude 10° 19:55:44 10° 170° (S) 1,672 4.9 -12.7°
Maximum altitude 19:59:06 46° 96° (E) 590 2.6 -13.2°
Drops below altitude 10° 20:02:03 10° 21° (NNE) 1,470 5.1 -13.6°
Sets 20:04:01 0° 15° (NNE) 2,323 6.2 -13.9°
